This is the latest recevied weather packets stored in our database for station/object VE2JJ-13. If no packets are shown the sender has not sent any weather packets the latest 10 day(s).
| Time | Temp. | Humidity | Pressure | Rain* | Wind** | Luminosity | Snow |
|---|---|---|---|---|---|---|---|
| 1778100811 | 9.44° C | 74% | 1001.1 hPa | 0 mm | - | - | - |
| 1778100511 | 9.44° C | 73% | 1001.2 hPa | 0 mm | - | - | - |
| 1778100211 | 9.44° C | 75% | 1001.2 hPa | 0 mm | - | - | - |
| 1778099881 | 9.44° C | 75% | 1001.3 hPa | 0 mm | - | - | - |
| 1778099584 | 9.44° C | 76% | 1001.3 hPa | 0 mm | - | - | - |
| 1778099281 | 9.44° C | 75% | 1001.2 hPa | 0 mm | - | - | - |
| 1778098983 | 9.44° C | 76% | 1001.2 hPa | 0 mm | - | - | - |
| 1778098653 | 9.44° C | 77% | 1001.2 hPa | 0 mm | - | - | - |
| 1778098352 | 10° C | 75% | 1001.3 hPa | 0 mm | - | - | - |
| 1778098026 | 9.44° C | 77% | 1001.3 hPa | 0 mm | - | - | - |
| 1778097692 | 9.44° C | 75% | 1001.4 hPa | 0 mm | - | - | - |
| 1778097393 | 8.89° C | 75% | 1001.4 hPa | 0 mm | - | - | - |
| 1778097092 | 8.89° C | 77% | 1001.6 hPa | 0 mm | - | - | - |
| 1778096762 | 8.89° C | 76% | 1001.6 hPa | 0 mm | - | - | - |
| 1778096462 | 8.89° C | 78% | 1001.5 hPa | 0 mm | - | - | - |
| 1778096132 | 8.89° C | 81% | 1001.5 hPa | 0 mm | - | - | - |
| 1778095801 | 8.89° C | 81% | 1001.5 hPa | 0 mm | - | - | - |
| 1778095502 | 8.89° C | 81% | 1001.5 hPa | 0 mm | - | - | - |
| 1778095171 | 8.89° C | 81% | 1001.5 hPa | 0 mm | - | - | - |
| 1778094872 | 8.33° C | 79% | 1001.4 hPa | 0 mm | - | - | - |
| 1778094542 | 8.33° C | 77% | 1001.4 hPa | 0 mm | - | - | - |
| 1778094244 | 8.89° C | 80% | 1001.3 hPa | 0 mm | - | - | - |
| 1778093914 | 8.89° C | 79% | 1001.3 hPa | 0 mm | - | - | - |
| 1778093581 | 8.33° C | 79% | 1001.4 hPa | 0 mm | - | - | - |
| 1778093283 | 8.89° C | 82% | 1001.4 hPa | 0 mm | - | - | - |
* Rain latest hour (hover to see other rain measurements)
** Current wind speed in m/s (hover to see current wind gust speed)